Find Starlink 32398

NORAD ID: 61624 Int'l Des: 2024-191 Owner: SPXS Country: US Constellation: starlink operational
LEOCIRCULAR

Live Position

Loading 3D Globe...

About Starlink 32398

Description loading...

Upcoming Passes

Passes for default location (London). Set your location on the main map for personalized predictions.

Altitude History

Loading altitude history...

Two-Line Element Set

1 61624U 24191D 26124.51372044 .00005812 00000-0 22047-3 0 9991
2 61624 42.9996 199.2667 0002573 293.6280 66.4301 15.27594082 86071
Epoch: May 4, 2026 • Age: 10 hours

Current Status

Altitude 487.7 km
Velocity 7.63 km/s
Sub-Earth Point 43.13°N, 94.64°E
Launch Date Oct 23, 2024
Age 1.5 years
Type internet

Technical Details

Classification Payload
Mass 730.00 kg
Dry Mass 700.00 kg
Total Mass 730.00 kg
Length 0.30 m
Diameter 4.10 m
Span 29.00 m
Shape Box + pan
Manufacturer SPXS
Bus Type Starlink V2M
Phase Status In Orbit
Owner/State SPXS/US

Most Searched